This demonstration page uses our WeatherBlox Daily Observations layout. Learn more.

Left ArrowRight Arrow

39.08367, -84.50855

Hourly Observations for January 7, 2018

Temp ( °F °C ) Dew Point ( °F °C ) Humidity (%) Winds ( mph kmh ) Pressure ( in mb ) Visibility ( mi km ) Precip ( " mm )
12:53 am 00:53 Clear 3 -16.1 0 -17.8 87 87 ENE 3 6 30.59 1036 10 16.0934 0 0
1:53 am 01:53 Clear 3 -16.1 -1 -18.3 83 83 Calm 30.58 1036 9 14.48406 0 0
2:53 am 02:53 Clear 3 -16.1 -1 -18.3 83 83 Calm 30.57 1035 9 14.48406 0 0
3:53 am 03:53 Clear 4 -15.6 0 -17.8 83 83 Calm 30.58 1036 10 16.0934 0 0
4:53 am 04:53 Clear 5 -15 1 -17.2 83 83 Calm 30.58 1036 10 16.0934 0 0
5:53 am 05:53 Clear 7 -13.9 3 -16.1 84 84 Calm 30.55 1035 10 16.0934 0 0
6:53 am 06:53 Clear 10 -12.2 5 -15 80 80 VRB 3 6 30.55 1035 10 16.0934 0 0
7:53 am 07:53 Clear 11 -11.7 4 -15.6 73 73 W 5 7 30.53 1034 10 16.0934 0 0
8:53 am 08:53 Sunny 13 -10.6 4 -15.6 67 67 VRB 3 6 30.52 1033 10 16.0934 0 0
9:53 am 09:53 Mostly Cloudy 16 -8.9 5 -15 62 62 Calm 30.51 1033 10 16.0934 0 0
10:53 am 10:53 Cloudy 19 -7.2 5 -15 54 54 SSW 7 11 30.49 1032 10 16.0934 0 0
11:53 am 11:53 Mostly Cloudy 24 -4.4 6 -14.4 46 46 S 6 9 30.43 1031 10 16.0934 0 0
12:53 pm 12:53 Cloudy 27 -2.8 5 -15 39 39 S 9 15 30.38 1029 10 16.0934 0 0
1:53 pm 13:53 Partly Cloudy 30 -1.1 7 -13.9 38 38 S 8 13 30.34 1027 10 16.0934 0 0
2:53 pm 14:53 Mostly Sunny 32 0 8 -13.3 36 36 SSE 3 6 30.3 1026 10 16.0934 0 0
3:53 pm 15:53 Partly Cloudy 34 1.1 8 -13.3 34 34 S 7 11 30.28 1026 10 16.0934 0 0
4:53 pm 16:53 Partly Cloudy 35 1.7 9 -12.8 34 34 Calm 30.28 1025 10 16.0934 0 0
5:53 pm 17:53 Mostly Clear 34 1.1 9 -12.8 35 35 S 5 7 30.28 1025 10 16.0934 0 0
6:53 pm 18:53 Clear 34 1.1 10 -12.2 37 37 SSW 3 6 30.27 1025 10 16.0934 0 0
7:53 pm 19:53 Cloudy 35 1.7 11 -11.7 37 37 S 7 11 30.24 1024 10 16.0934 0 0
8:53 pm 20:53 Cloudy 35 1.7 12 -11.1 38 38 SSW 7 11 30.22 1023 10 16.0934 0 0
9:53 pm 21:53 Cloudy 36 2.2 13 -10.6 39 39 SSW 7 11 30.19 1022 10 16.0934 0 0
10:53 pm 22:53 Cloudy 37 2.8 14 -10 39 39 S 6 9 30.16 1021 10 16.0934 0 0.0254
11:53 pm 23:53 Cloudy 37 2.8 15 -9.4 41 41 SSW 7 11 30.14 1021 10 16.0934 0 0

Powered by AerisWeather